Gunnison, CO

10:54 AM MDT on April 30, 2017 (GMT -0600)
Gunnison County

Weather History for KGUC - March, 2012

Change the Weather History Date:

Monday, March 5, 2012

  Actual Average Record
Temperature  
Mean Temperature 27 °F -  
Max Temperature 46 °F 34 °F 46 °F (2012)
Min Temperature 8 °F 10 °F -11 °F (1997)
Degree Days  
Heating Degree Days 38    
Moisture  
Dew Point 12 °F    
Average Humidity 59    
Maximum Humidity 85    
Minimum Humidity 27    
Precipitation  
Precipitation 0.00 in - - ()
Sea Level Pressure  
Sea Level Pressure 30.28 in    
Wind  
Wind Speed 1 mph (North)    
Max Wind Speed 6 mph    
Max Gust Speed -    
Visibility 10 miles    
Events      
Averages and records for this station are not official NWS values.
T = Trace of Precipitation, MM = Missing Value Source: NWS Daily Summary

Daily Weather History Graph

Daily Weather History Graph

Search for Another Location

Airport or City:

Trip Planner

Search our weather history database for the weather conditions in past years. The results will help you decide how hot, cold, wet, or windy it might be!

Date:

Astronomy

Mar. 05, 2012 Rise Set
Actual Time 6:33 AM MST 6:05 PM MST
Civil Twilight 6:06 AM MST 6:31 PM MST
Nautical Twilight 5:36 AM MST 7:02 PM MST
Astronomical Twilight 5:05 AM MST 7:33 PM MST
Moon 3:28 PM MST (3/5) 4:32 AM MST (3/5)
Length of Visible Light 12h 25m
Length of Day
11h 32m
Waxing Gibbous, 91% of the Moon is Illuminated
Mar 5
Waxing Gibbous
Mar 8
Full
Mar 14
Last Quarter
Mar 22
New
Mar 30
First Quarter

Hourly Weather History & Observations

Time (MST) Temp. Windchill Dew Point Humidity Pressure Visibility Wind Dir Wind Speed Gust Speed Precip Events Conditions
12:15 AM 17.6 °F - 10.4 °F 73% 30.37 in 10.0 mi Calm Calm - N/A   Clear
12:55 AM 17.6 °F - 10.4 °F 73% 30.37 in 10.0 mi Calm Calm - N/A   Clear
1:15 AM 17.6 °F 12.3 °F 8.6 °F 68% 30.38 in 10.0 mi North 3.5 mph - N/A   Clear
1:55 AM 15.8 °F - 8.6 °F 73% 30.37 in 10.0 mi Calm Calm - N/A   Clear
2:15 AM 14.0 °F 8.2 °F 8.6 °F 79% 30.37 in 10.0 mi North 3.5 mph - N/A   Clear
2:35 AM 14.0 °F - 8.6 °F 79% 30.37 in 10.0 mi Calm Calm - N/A   Clear
2:55 AM 12.2 °F 6.1 °F 6.8 °F 79% 30.36 in 10.0 mi North 3.5 mph - N/A   Clear
3:55 AM 12.2 °F 4.3 °F 6.8 °F 79% 30.36 in 10.0 mi North 4.6 mph - N/A   Clear
4:15 AM 10.4 °F 2.2 °F 5.0 °F 79% 30.36 in 10.0 mi North 4.6 mph - N/A   Clear
4:35 AM 10.4 °F - 5.0 °F 79% 30.37 in 10.0 mi Calm Calm - N/A   Clear
4:55 AM 10.4 °F - 3.2 °F 73% 30.37 in 10.0 mi Calm Calm - N/A   Clear
5:15 AM 10.4 °F - 3.2 °F 73% 30.37 in 10.0 mi Calm Calm - N/A   Clear
5:35 AM 10.4 °F - 6.8 °F 85% 30.37 in 10.0 mi Calm Calm - N/A   Clear
5:55 AM 8.6 °F - 3.2 °F 79% 30.37 in 10.0 mi Calm Calm - N/A   Clear
6:15 AM 8.6 °F - 3.2 °F 79% 30.37 in 10.0 mi Calm Calm - N/A   Clear
6:35 AM 8.6 °F - 5.0 °F 85% 30.37 in 10.0 mi Calm Calm - N/A   Clear
6:55 AM 8.6 °F - 5.0 °F 85% 30.37 in 10.0 mi Calm Calm - N/A   Clear
7:15 AM 8.6 °F 2.0 °F 3.2 °F 79% 30.38 in 10.0 mi NE 3.5 mph - N/A   Clear
7:35 AM 10.4 °F - 5.0 °F 79% 30.38 in 10.0 mi Calm Calm - N/A   Clear
7:55 AM 12.2 °F - 6.8 °F 79% 30.38 in 10.0 mi Calm Calm - N/A   Clear
8:55 AM 17.6 °F - 10.4 °F 73% 30.38 in 10.0 mi Calm Calm - N/A   Clear
9:15 AM 19.4 °F - 8.6 °F 63% 30.37 in 10.0 mi Calm Calm - N/A   Clear
9:55 AM 21.2 °F - 8.6 °F 58% 30.36 in 10.0 mi Calm Calm - N/A   Clear
10:15 AM 24.8 °F - 12.2 °F 59% 30.36 in 10.0 mi Calm Calm - N/A   Clear
10:35 AM 24.8 °F - 12.2 °F 59% 30.35 in 10.0 mi Calm Calm - N/A   Clear
10:55 AM 28.4 °F - 12.2 °F 51% 30.34 in 10.0 mi Calm Calm - N/A   Clear
11:15 AM 28.4 °F - 14.0 °F 55% 30.33 in 10.0 mi Calm Calm - N/A   Clear
11:35 AM 28.4 °F 24.6 °F 14.0 °F 55% 30.32 in 10.0 mi East 3.5 mph - N/A   Clear
11:55 AM 30.2 °F - 15.8 °F 55% 30.31 in 10.0 mi Calm Calm - N/A   Clear
12:15 PM 33.8 °F - 15.8 °F 48% 30.29 in 10.0 mi Calm Calm - N/A   Clear
12:35 PM 33.8 °F - 15.8 °F 48% 30.28 in 10.0 mi Calm Calm - N/A   Clear
12:55 PM 33.8 °F - 17.6 °F 52% 30.26 in 10.0 mi Calm Calm - N/A   Clear
1:15 PM 35.6 °F - 17.6 °F 48% 30.24 in 10.0 mi Calm Calm - N/A   Clear
1:35 PM 37.4 °F - 17.6 °F 45% 30.23 in 10.0 mi Calm Calm - N/A   Clear
1:55 PM 37.4 °F - 17.6 °F 45% 30.22 in 10.0 mi Calm Calm - N/A   Clear
2:15 PM 39.2 °F - 17.6 °F 42% 30.21 in 10.0 mi Calm Calm - N/A   Clear
2:35 PM 41.0 °F - 19.4 °F 42% 30.19 in 10.0 mi Calm Calm - N/A   Clear
3:15 PM 42.8 °F 40.1 °F 17.6 °F 36% 30.18 in 10.0 mi West 4.6 mph - N/A   Clear
3:35 PM 42.8 °F - 17.6 °F 36% 30.17 in 10.0 mi Calm Calm - N/A   Clear
3:55 PM 44.6 °F - 17.6 °F 34% 30.16 in 10.0 mi Calm Calm - N/A   Clear
4:15 PM 44.6 °F - 19.4 °F 37% 30.16 in 10.0 mi Calm Calm - N/A   Clear
4:35 PM 46.4 °F 45.2 °F 19.4 °F 34% 30.15 in 10.0 mi North 3.5 mph - N/A   Clear
5:35 PM 44.6 °F 43.1 °F 14.0 °F 29% 30.15 in 10.0 mi South 3.5 mph - N/A   Clear
5:55 PM 44.6 °F - 12.2 °F 27% 30.15 in 10.0 mi Calm Calm - N/A   Clear
6:15 PM 44.6 °F - 12.2 °F 27% 30.15 in 10.0 mi Calm Calm - N/A   Clear
6:35 PM 37.4 °F - 15.8 °F 41% 30.15 in 10.0 mi Calm Calm - N/A   Clear
6:55 PM 35.6 °F - 15.8 °F 44% 30.15 in 10.0 mi Calm Calm - N/A   Clear
7:15 PM 37.4 °F 34.9 °F 15.8 °F 41% 30.15 in 10.0 mi South 3.5 mph - N/A   Clear
7:35 PM 33.8 °F - 15.8 °F 48% 30.16 in 10.0 mi Calm Calm - N/A   Clear
7:55 PM 33.8 °F 28.6 °F 12.2 °F 41% 30.15 in 10.0 mi NW 5.8 mph - N/A   Clear
8:15 PM 30.2 °F 26.7 °F 14.0 °F 51% 30.16 in 10.0 mi NNE 3.5 mph - N/A   Clear
8:55 PM 28.4 °F - 14.0 °F 55% 30.16 in 10.0 mi Calm Calm - N/A   Clear
9:15 PM 26.6 °F - 15.8 °F 64% 30.16 in 10.0 mi Calm Calm - N/A   Clear
9:55 PM 24.8 °F - 15.8 °F 69% 30.16 in 10.0 mi Calm Calm - N/A   Clear
10:15 PM 26.6 °F - 15.8 °F 64% 30.15 in 10.0 mi Calm Calm - N/A   Clear
10:35 PM 26.6 °F 22.6 °F 12.2 °F 55% 30.14 in 10.0 mi NNE 3.5 mph - N/A   Clear
10:55 PM 23.0 °F - 15.8 °F 74% 30.14 in 10.0 mi Calm Calm - N/A   Clear
11:15 PM 24.8 °F - 14.0 °F 64% 30.13 in 10.0 mi Calm Calm - N/A   Clear
11:35 PM 23.0 °F 18.4 °F 12.2 °F 63% 30.13 in 10.0 mi North 3.5 mph - N/A   Clear
11:55 PM 21.2 °F - 10.4 °F 63% 30.13 in 10.0 mi Calm Calm - N/A   Clear